Tracking 31027 objects as of 19-Jul-2025
HD Live streaming from Space Station
objects crossing your sky now

SL-14 R/B

Track SL-14 R/B now!
10-day predictions


NORAD ID: 22287
Int'l Code: 1992-094B
Perigee: 619.9 km
Apogee: 654.3 km
Inclination: 82.5 °
Period: 97.3 minutes
Semi major axis: 7008 km
RCS: 4.3914 m2 (large)
Launch date: December 25, 1992
Source: Commonwealth of Independent States (former USSR) (CIS)
Launch site: PLESETSK MISSILE AND SPACE COMPLEX (PKMTR)

Note: This is a ROCKET BODY
Your satellite tracking list
FENGYUN 1C DEB
Track 1 satellite(s)




NASA's NSSDC Master Catalog

Two Line Element Set (TLE):
1 22287U 92094B   25199.75600791  .00000293  00000-0  35681-4 0  9997
2 22287  82.5220 210.6839 0024563  27.0312 333.2174 14.79805365754957
Source of the keplerian elements: AFSPC